Location: Dodgeville
(42.9600°N, 90.1300°W)
Time: 18:29:53
(UTC-05:00)

Amateur Radio Satellites - All Passes

Search period start: 01 September 2014 17:59
Search period end: 02 September 2014 17:59
Location: Dodgeville, 42.9600°N, 90.1300°W

Satellite Date Start Highest point End Downlink Frequencies (MHz)
Time Altitude Azimuth
Sapphire 01 Sep 18:02:24 18:07:24 37° 309° (NW) 18:12:26 437.095 MHz 1200 baud AX-25 AFSK
RS-15 01 Sep 18:11:38 18:21:49 44° 250° (WSW) 18:32:26 29.354 - 29.394 USB, Beacon 29.352 USB
JAS-2 01 Sep 18:21:12 18:27:17 76° 257° (WSW) 18:32:46 435.800 - 435.900 CW/SSB, 435.910 FM
AO-7 01 Sep 18:30:08 18:34:46 16° 272° (W) 18:39:25 29.400 - 29.500 MHz
PCSat 01 Sep 18:32:48 18:37:03 23° 316° (NW) 18:41:20 145.825 MHz
SO-67 01 Sep 18:42:36 18:45:33 27° 71° (ENE) 18:48:31 435.3500 MHz FM
Hamsat 01 Sep 19:15:26 19:18:25 18° 268° (W) 19:21:25 145.90 MHz
OPAL 01 Sep 19:20:15 19:23:29 17° 303° (WNW) 19:26:43 ?
STRAND 1 01 Sep 19:27:13 19:32:05 43° 99° (E) 19:36:55 ?
HO-68 01 Sep 19:50:14 19:56:07 29° 59° (ENE) 20:02:01 435.675 MHz FM
SO-67 01 Sep 20:16:12 20:18:37 18° 267° (W) 20:21:03 435.3500 MHz FM
STRAND 1 01 Sep 21:06:56 21:11:01 25° 296° (WNW) 21:15:07 ?
UKube-1 01 Sep 21:10:05 21:14:13 46° 71° (ENE) 21:18:23 145.840 MHz, 145.915 MHz
Oscar 11 01 Sep 21:14:14 21:18:04 31° 69° (ENE) 21:21:56 145.825 FM, Beacon 2401.500 USB
HO-68 01 Sep 21:36:20 21:43:22 61° 258° (WSW) 21:50:27 435.675 MHz FM
Saudisat 1A 01 Sep 21:44:08 21:47:45 25° 114° (ESE) 21:51:24 436.775 MHz
FUNcube-1 01 Sep 21:46:16 21:49:47 27° 68° (ENE) 21:53:23 145.950 - 145.970 MHz USB
MaSat-1 01 Sep 22:07:09 22:11:37 47° 57° (ENE) 22:15:29 437.345 MHz
KITSAT 1 01 Sep 22:27:01 22:33:51 31° 107° (ESE) 22:40:41 435.175 FM
AO-40 01 Sep 22:30:10 04:00:34 38° 160° (SSE) 05:42:30 Beacon 2401.320
UKube-1 01 Sep 22:47:51 22:50:39 17° 267° (W) 22:53:29 145.840 MHz, 145.915 MHz
Oscar 11 01 Sep 22:50:43 22:54:16 24° 266° (W) 22:57:51 145.825 FM, Beacon 2401.500 USB
FUNcube-1 01 Sep 23:22:32 23:26:07 27° 265° (W) 23:29:48 145.950 - 145.970 MHz USB
Saudisat 1A 01 Sep 23:23:03 23:27:10 38° 311° (NW) 23:31:19 436.775 MHz
MaSat-1 01 Sep 23:45:18 23:48:03 16° 259° (W) 23:50:34 437.345 MHz
PCSat 01 Sep 23:53:02 23:55:45 14° 35° (NE) 23:58:27 145.825 MHz
KITSAT 1 02 Sep 00:20:43 00:28:44 63° 307° (NW) 00:36:47 435.175 FM
Sapphire 02 Sep 01:05:50 01:10:51 36° 50° (NE) 01:15:49 437.095 MHz 1200 baud AX-25 AFSK
PCSat 02 Sep 01:34:53 01:40:18 63° 57° (ENE) 01:45:40 145.825 MHz
Oscar 19 02 Sep 01:39:51 01:43:48 22° 93° (E) 01:47:43 437.125 CW, 437.150 USB
AO-Echo 02 Sep 01:50:36 01:51:50 11° 89° (E) 01:53:04 ?
Oscar 10/S400 02 Sep 02:13:51 03:18:05 44° 220° (SW) 09:02:32 145.825 - 145.975 CW/USB, Beacon 145.810 USB
Oscar 16 02 Sep 02:14:25 02:19:26 46° 99° (E) 02:24:24 437.025 USB, Beacon 2401.1428
ITAMSAT 1 02 Sep 02:17:39 02:21:32 21° 93° (E) 02:25:24 435.822 SSB
KITSAT 1 02 Sep 02:20:05 02:25:54 21° 331° (NNW) 02:31:45 435.175 FM
SO-50 02 Sep 02:24:22 02:27:04 16° 109° (ESE) 02:29:47 436.795 FM
Uribyol 2 02 Sep 02:26:37 02:31:00 27° 95° (E) 02:35:23 436.500 FM
JAS-1B 02 Sep 02:32:31 02:38:05 29° 92° (E) 02:43:05 435.800 - 435.900 CW/SSB
TMSAT-1 02 Sep 02:41:10 02:42:48 11° 87° (E) 02:44:25 436.925 FM
AO-27 02 Sep 02:46:39 02:51:31 39° 98° (E) 02:56:21 436.795 MHz FM
Sapphire 02 Sep 02:49:19 02:54:15 36° 249° (WSW) 02:59:09 437.095 MHz 1200 baud AX-25 AFSK
Oscar 19 02 Sep 03:18:24 03:23:24 49° 290° (WNW) 03:28:22 437.125 CW, 437.150 USB
OPAL 02 Sep 03:18:54 03:22:34 20° 59° (ENE) 03:26:16 ?
PCSat 02 Sep 03:19:26 03:23:11 19° 254° (WSW) 03:26:55 145.825 MHz
AO-Echo 02 Sep 03:26:28 03:31:11 78° 285° (WNW) 03:35:54 ?
Gurwin Techsat 1B 02 Sep 03:28:18 03:33:22 44° 99° (E) 03:38:25 435.225 FM
Oscar 16 02 Sep 03:54:24 03:58:30 24° 296° (WNW) 04:02:35 437.025 USB, Beacon 2401.1428
ITAMSAT 1 02 Sep 03:56:17 04:01:17 50° 290° (WNW) 04:06:17 435.822 SSB
SO-50 02 Sep 04:02:40 04:07:06 61° 307° (NW) 04:11:40 436.795 FM
Uribyol 2 02 Sep 04:05:46 04:10:34 39° 292° (WNW) 04:15:22 436.500 FM
UOSAT-12 02 Sep 04:10:23 04:13:04 15° 109° (ESE) 04:15:47 437.025 FM, 437.400 FM
TMSAT-1 02 Sep 04:18:05 04:23:25 89° 285° (WNW) 04:28:43 436.925 FM
Uosat F 02 Sep 04:20:05 04:23:29 18° 92° (E) 04:26:52 435.120 FM
KITSAT 1 02 Sep 04:21:39 04:25:09 13° 2° (N) 04:28:38 435.175 FM
JAS-1B 02 Sep 04:22:44 04:29:03 44° 295° (WNW) 04:34:35 435.800 - 435.900 CW/SSB
AO-27 02 Sep 04:26:31 04:30:51 28° 295° (WNW) 04:35:11 436.795 MHz FM
AO-7 02 Sep 04:33:29 04:40:47 33° 96° (E) 04:48:02 29.400 - 29.500 MHz
OPAL 02 Sep 04:56:01 05:01:00 57° 257° (WSW) 05:06:05 ?
Gurwin Techsat 1B 02 Sep 05:08:47 05:13:05 26° 296° (WNW) 05:17:23 435.225 FM
JAS-2 02 Sep 05:32:17 05:32:54 10° 89° (E) 05:33:30 435.800 - 435.900 CW/SSB, 435.910 FM
SO-50 02 Sep 05:46:45 05:48:39 12° 328° (NNW) 05:50:34 436.795 FM
UOSAT-12 02 Sep 05:48:04 05:52:39 66° 306° (NW) 05:57:22 437.025 FM, 437.400 FM
Uosat F 02 Sep 05:57:43 06:02:36 55° 289° (WNW) 06:07:28 435.120 FM
TMSAT-1 02 Sep 06:00:08 06:02:34 13° 302° (WNW) 06:05:00 436.925 FM
Saudisat 1A 02 Sep 06:09:25 06:13:19 30° 46° (NE) 06:17:12 436.775 MHz
KITSAT 1 02 Sep 06:17:56 06:24:11 24° 32° (NNE) 06:30:25 435.175 FM
RS-15 02 Sep 06:25:31 06:34:34 31° 105° (ESE) 06:43:27 29.354 - 29.394 USB, Beacon 29.352 USB
AO-7 02 Sep 06:25:51 06:33:55 58° 295° (WNW) 06:41:56 29.400 - 29.500 MHz
STRAND 1 02 Sep 06:43:59 06:49:02 69° 73° (ENE) 06:54:07 ?
Hamsat 02 Sep 06:58:39 07:03:02 78° 102° (ESE) 07:07:20 145.90 MHz
JAS-2 02 Sep 07:13:21 07:18:40 87° 104° (ESE) 07:24:25 435.800 - 435.900 CW/SSB, 435.910 FM
UOSAT-12 02 Sep 07:31:24 07:33:44 14° 327° (NNW) 07:36:05 437.025 FM, 437.400 FM
SO-67 02 Sep 07:38:08 07:41:10 27° 96° (E) 07:44:10 435.3500 MHz FM
Saudisat 1A 02 Sep 07:48:55 07:52:56 34° 244° (WSW) 07:56:55 436.775 MHz
KITSAT 1 02 Sep 08:12:55 08:21:02 76° 56° (ENE) 08:29:05 435.175 FM
AO-7 02 Sep 08:21:01 08:24:58 14° 317° (NW) 08:28:56 29.400 - 29.500 MHz
STRAND 1 02 Sep 08:25:56 08:28:43 15° 270° (W) 08:31:31 ?
RS-15 02 Sep 08:34:46 08:45:50 76° 306° (NW) 08:56:50 29.354 - 29.394 USB, Beacon 29.352 USB
Hamsat 02 Sep 08:37:01 08:38:20 11° 299° (WNW) 08:39:39 145.90 MHz
ISS 02 Sep 08:48:14 08:49:31 12° 130° (SE) 08:50:49 145.800 FM
JAS-2 02 Sep 09:00:44 09:03:09 13° 301° (WNW) 09:05:39 435.800 - 435.900 CW/SSB, 435.910 FM
HO-68 02 Sep 09:03:38 09:09:22 25° 93° (E) 09:15:04 435.675 MHz FM
SO-67 02 Sep 09:11:39 09:14:01 17° 292° (WNW) 09:16:22 435.3500 MHz FM
KITSAT 1 02 Sep 10:09:27 10:15:38 25° 256° (WSW) 10:21:48 435.175 FM
ISS 02 Sep 10:22:27 10:25:47 89° 326° (NW) 10:29:07 145.800 FM
UKube-1 02 Sep 10:33:17 10:37:39 76° 103° (ESE) 10:41:59 145.840 MHz, 145.915 MHz
Oscar 11 02 Sep 10:36:29 10:40:48 56° 100° (E) 10:45:04 145.825 FM, Beacon 2401.500 USB
HO-68 02 Sep 10:50:29 10:57:33 64° 291° (WNW) 11:04:35 435.675 MHz FM
RS-15 02 Sep 10:51:05 11:00:19 30° 335° (NNW) 11:09:37 29.354 - 29.394 USB, Beacon 29.352 USB
SO-50 02 Sep 10:53:20 10:57:14 24° 42° (NE) 11:01:11 436.795 FM
FUNcube-1 02 Sep 11:09:42 11:14:10 52° 100° (E) 11:18:39 145.950 - 145.970 MHz USB
MaSat-1 02 Sep 11:56:20 11:59:52 20° 102° (ESE) 12:03:31 437.345 MHz
Oscar 16 02 Sep 11:57:58 11:58:55 11° 56° (NE) 11:59:51 437.025 USB, Beacon 2401.1428
ISS 02 Sep 12:00:07 12:02:52 23° 345° (NNW) 12:05:37 145.800 FM
UKube-1 02 Sep 12:11:42 12:13:14 12° 300° (WNW) 12:14:46 145.840 MHz, 145.915 MHz
Oscar 11 02 Sep 12:13:59 12:16:32 15° 297° (WNW) 12:19:04 145.825 FM, Beacon 2401.500 USB
SO-50 02 Sep 12:33:25 12:38:06 54° 241° (WSW) 12:42:50 436.795 FM
UOSAT-12 02 Sep 12:37:25 12:41:08 22° 41° (NE) 12:44:48 437.025 FM, 437.400 FM
HO-68 02 Sep 12:40:39 12:43:54 14° 311° (NW) 12:47:08 435.675 MHz FM
FUNcube-1 02 Sep 12:47:09 12:50:10 18° 296° (WNW) 12:53:13 145.950 - 145.970 MHz USB
Oscar 19 02 Sep 12:57:25 13:02:02 34° 67° (ENE) 13:06:42 437.125 CW, 437.150 USB
AO-Echo 02 Sep 13:03:26 13:06:49 19° 63° (ENE) 13:10:09 ?
RS-15 02 Sep 13:09:04 13:17:30 24° 11° (N) 13:26:03 29.354 - 29.394 USB, Beacon 29.352 USB
Gurwin Techsat 1B 02 Sep 13:15:00 13:16:28 11° 56° (NE) 13:17:57 435.225 FM
JAS-1B 02 Sep 13:15:22 13:23:53 39° 63° (ENE) 13:31:29 435.800 - 435.900 CW/SSB
MaSat-1 02 Sep 13:31:31 13:36:25 57° 300° (WNW) 13:41:31 437.345 MHz
Oscar 16 02 Sep 13:32:11 13:37:20 73° 74° (ENE) 13:42:31 437.025 USB, Beacon 2401.1428
ITAMSAT 1 02 Sep 13:36:22 13:41:01 35° 67° (ENE) 13:45:41 435.822 SSB
ISS 02 Sep 13:37:58 13:40:25 19° 6° (N) 13:42:52 145.800 FM
Uribyol 2 02 Sep 13:45:18 13:50:10 45° 69° (ENE) 13:55:04 436.500 FM
AO-7 02 Sep 13:47:17 13:50:16 12° 41° (NE) 13:53:16 29.400 - 29.500 MHz
TMSAT-1 02 Sep 14:01:44 14:05:39 22° 62° (ENE) 14:09:35 436.925 FM
AO-27 02 Sep 14:05:38 14:10:45 66° 73° (ENE) 14:15:54 436.795 MHz FM
UOSAT-12 02 Sep 14:17:00 14:21:40 60° 240° (WSW) 14:26:15 437.025 FM, 437.400 FM
Oscar 19 02 Sep 14:36:50 14:41:22 31° 264° (W) 14:45:58 437.125 CW, 437.150 USB
AO-Echo 02 Sep 14:40:19 14:45:13 55° 259° (W) 14:49:59 ?
Gurwin Techsat 1B 02 Sep 14:50:14 14:55:31 75° 74° (ENE) 15:00:50 435.225 FM
JAS-1B 02 Sep 15:04:31 15:14:04 59° 259° (W) 15:22:35 435.800 - 435.900 CW/SSB
MaSat-1 02 Sep 15:12:55 15:14:32 11° 320° (NW) 15:16:10 437.345 MHz
Oscar 16 02 Sep 15:14:34 15:17:14 14° 271° (W) 15:19:54 437.025 USB, Beacon 2401.1428
ISS 02 Sep 15:14:36 15:17:47 41° 25° (NNE) 15:20:58 145.800 FM
ITAMSAT 1 02 Sep 15:16:02 15:20:32 30° 264° (W) 15:25:03 435.822 SSB
RS-15 02 Sep 15:22:48 15:33:26 49° 43° (NE) 15:44:22 29.354 - 29.394 USB, Beacon 29.352 USB
Uribyol 2 02 Sep 15:25:46 15:29:50 23° 266° (W) 15:33:55 436.500 FM
AO-7 02 Sep 15:33:12 15:41:06 50° 63° (ENE) 15:49:00 29.400 - 29.500 MHz
Uosat F 02 Sep 15:34:01 15:38:16 29° 66° (ENE) 15:42:31 435.120 FM
TMSAT-1 02 Sep 15:40:01 15:45:11 54° 260° (W) 15:50:23 436.925 FM
AO-27 02 Sep 15:47:40 15:50:44 16° 269° (W) 15:53:49 436.795 MHz FM
Sapphire 02 Sep 15:49:23 15:53:44 25° 108° (ESE) 15:58:07 437.095 MHz 1200 baud AX-25 AFSK
PCSat 02 Sep 16:17:30 16:22:40 48° 114° (ESE) 16:27:52 145.825 MHz
Gurwin Techsat 1B 02 Sep 16:33:19 16:36:04 14° 271° (W) 16:38:48 435.225 FM
ISS 02 Sep 16:51:30 16:54:27 29° 223° (SW) 16:57:23 145.800 FM
JAS-1B 02 Sep 17:03:18 17:05:55 11° 277° (W) 17:08:28 435.800 - 435.900 CW/SSB
OPAL 02 Sep 17:05:07 17:09:53 35° 99° (E) 17:14:36 ?
Uosat F 02 Sep 17:12:21 17:16:55 35° 263° (W) 17:21:31 435.120 FM
AO-7 02 Sep 17:26:21 17:34:00 40° 262° (W) 17:41:42 29.400 - 29.500 MHz
JAS-2 02 Sep 17:26:54 17:32:21 40° 69° (ENE) 17:37:21 435.800 - 435.900 CW/SSB, 435.910 FM
Sapphire 02 Sep 17:31:38 17:36:51 49° 306° (NW) 17:42:08 437.095 MHz 1200 baud AX-25 AFSK
RS-15 02 Sep 17:35:21 17:46:04 57° 246° (WSW) 17:57:13 29.354 - 29.394 USB, Beacon 29.352 USB
